TimeEDT,TemperatureF,Dew PointF,Humidity,Sea Level PressureIn,VisibilityMPH,Wind Direction,Wind SpeedMPH,Gust SpeedMPH,PrecipitationIn,Events,Conditions,WindDirDegrees,DateUTC
12:53 AM,52.0,45.0,77,30.22,10.0,Calm,Calm,-,N/A,,Overcast,0,2012-10-25 04:53:00
1:53 AM,52.0,46.9,83,30.23,10.0,Calm,Calm,-,N/A,,Overcast,0,2012-10-25 05:53:00
2:53 AM,52.0,46.9,83,30.23,10.0,Calm,Calm,-,N/A,,Overcast,0,2012-10-25 06:53:00
3:53 AM,53.1,45.0,74,30.23,10.0,Calm,Calm,-,N/A,,Overcast,0,2012-10-25 07:53:00
4:53 AM,53.1,46.9,80,30.23,10.0,Calm,Calm,-,N/A,,Overcast,0,2012-10-25 08:53:00
5:53 AM,53.1,44.1,71,30.25,10.0,Calm,Calm,-,N/A,,Overcast,0,2012-10-25 09:53:00
6:53 AM,52.0,45.0,77,30.25,10.0,Calm,Calm,-,N/A,,Overcast,0,2012-10-25 10:53:00
7:53 AM,53.1,46.9,80,30.27,10.0,Calm,Calm,-,N/A,,Overcast,0,2012-10-25 11:53:00
8:53 AM,54.0,46.0,75,30.28,10.0,Calm,Calm,-,N/A,,Overcast,0,2012-10-25 12:53:00
9:53 AM,55.0,46.0,72,30.30,10.0,Calm,Calm,-,N/A,,Overcast,0,2012-10-25 13:53:00
10:53 AM,57.0,44.1,62,30.30,10.0,Calm,Calm,-,N/A,,Overcast,0,2012-10-25 14:53:00
11:53 AM,57.9,39.9,51,30.30,10.0,Calm,Calm,-,N/A,,Overcast,0,2012-10-25 15:53:00
12:53 PM,57.9,37.0,46,30.28,10.0,Calm,Calm,-,N/A,,Overcast,0,2012-10-25 16:53:00
1:53 PM,60.1,39.0,46,30.27,10.0,Calm,Calm,-,N/A,,Overcast,0,2012-10-25 17:53:00
2:53 PM,60.1,43.0,53,30.26,10.0,South,5.8,-,N/A,,Overcast,190,2012-10-25 18:53:00
3:53 PM,61.0,46.0,58,30.26,10.0,South,4.6,-,N/A,,Overcast,180,2012-10-25 19:53:00
4:53 PM,61.0,44.1,54,30.26,10.0,SSW,5.8,-,N/A,,Overcast,210,2012-10-25 20:53:00
5:53 PM,60.1,46.9,62,30.26,10.0,SSW,4.6,-,N/A,,Overcast,200,2012-10-25 21:53:00
6:53 PM,57.9,48.0,70,30.27,10.0,South,4.6,-,N/A,,Overcast,180,2012-10-25 22:53:00
7:50 PM,57.2,48.2,72,30.27,10.0,South,4.6,-,N/A,,Overcast,170,2012-10-25 23:50:00
7:53 PM,57.9,48.0,70,30.27,10.0,South,4.6,-,N/A,,Overcast,170,2012-10-25 23:53:00
8:53 PM,57.9,48.0,70,30.27,10.0,Calm,Calm,-,N/A,,Overcast,0,2012-10-26 00:53:00
9:53 PM,57.0,50.0,77,30.26,10.0,Calm,Calm,-,N/A,,Overcast,0,2012-10-26 01:53:00
10:53 PM,57.0,48.9,74,30.25,10.0,Calm,Calm,-,N/A,,Overcast,0,2012-10-26 02:53:00
11:53 PM,57.0,51.1,81,30.25,10.0,Calm,Calm,-,N/A,,Overcast,0,2012-10-26 03:53:00